Skip to content

GuitarMania

제가 이리저리 둘러봐도 뭐가 좋은 지 모르겠어요ㅜㅜ
괜찮다 싶으면 너무 비싸고~~
싸다~ 싶으면 안좋은것 같고....
뭔가 좋은 것 없나요??ㅠㅜ
* 수님에 의해서 게시물 복사되었습니다 (2011-05-26 07:32)
Comment '4'
  • 11 2011.05.19 16:24 (*.145.223.171)
    아날로그방식은 정확도가 가면갈수록 떨어지지만, 크게 초기셋팅? 하면 또 그럭저럭 쓸만합니다.
    전자방식은 정확도는 있는거 같은데..당췌 신뢰가안갑니다...:: 또 이건 아날로그랑 다르게 초기셋팅이 즉 센서교환이라.....ㅎㅎㅎ

    결국 케이스에는 전자습도계를 휴대는 하지만, 그건 개의치않고 보통 아날로그 습도계를 많이 참조합니다.

    참고로 아날로그방식은 5-6년전 콩쥐님이 추천했던거 가지고 있고.. 7000~8000원
    전자방식은 코**에서 팔았던 오**스 습도계 가지고있습니다. 한 2~3만원정도.....?

    기타를 주로 지정된 장소에서 많이 치신다면, 아날로그가 좋습니다.

  • 케이스삽니다. 2011.05.19 17:57 (*.141.121.129)
    콩쥐님께서 추천하셨었다는 습도계가 무엇인지 알 수 있을까요??ㅠㅠ
  • 리브라 2011.05.19 18:46 (*.131.167.73)
    패션 온습도계입니다. 6000원에 옥션에서 팔아요.

    http://itempage3.auction.co.kr/DetailView.aspx?ItemNo=A505660049&keyword=%c6%d0%bc%c7%20%bf%c2%bd%c0%b5%b5%b0%e8&Fwk=%c6%d0%bc%c7%20%bf%c2%bd%c0%b5%b5%b0%e8&scoredtype=0&frm2=through&acode=SRP_SV_0301
  • 명노창 2011.05.19 21:06 (*.171.215.102)
    제 공방에 있는 독일 바리고(오차범위 3%)습도계로 여러가지를 체크해 보았는데 일제 드레텍제품이 가장 정확하게맞더군요..다른제품들은 오차범위가 너무 커서 모두 버렸습니다..
    가격도 싸고 정확합니다.
    http://itempage3.auction.co.kr/DetailView.aspx?ItemNo=A541410453&keyword=%b5%e5%b7%b9%c5%d8&Fwk=%b5%e5%b7%b9%c5%d8&scoredtype=1&frm2=through&acode=SRP_SV_0301
?

List of Articles
번호 제목 글쓴이 날짜 조회 수
1561 Resonances.......fritz mueller 1 콩쥐 2013.07.31 200181
1560 기타 명기(名器)와 명장(名匠)들 2권 1 file prophet 2013.06.07 86729
1559 <나의 음악 이야기>-페이스북 연재-섬소년 섬소년 2013.06.07 76408
1558 기타 전문잡지 오르페오 창간호 7 오리베 2013.05.30 106291
1557 라미레즈-통념과 사실 2 리브라 2013.05.24 84469
1556 리사이틀 박스 7 file 리브라 2013.02.05 99428
1555 태평양 건너온 귀한물건 입니다. 3 file 프리덤 2013.01.09 81567
1554 최동수선생님 악기 탐방! 5 file 이호성 2012.12.11 84652
1553 슈퍼칩(string tie) 7 file gitarre 2012.11.29 81085
1552 대전 국제기타페스티벌 기타전시회 관람기 1 스테레오 2012.10.15 80250
1551 스페인 제작자 2 2012.10.01 90005
1550 재미있는 기타 입니다.... 3 file 대건안드레아 2012.09.16 88482
1549 에르고 플레이 고무압착기 오래 쓰는 방법 2 file 피날레 2012.09.03 102905
1548 황칠 2 2012.07.05 111810
1547 최동수 선생님이 만드신 지팽이 기타..... 9 file 대건안드레아 2012.07.01 87911
1546 최동수 선생님이 새로 만드신 총 기타... 19 file 대건안드레아 2012.06.30 84394
1545 세계적인 기타제작가 액자 전달식 1 file 대건안드레아 2012.06.30 86791
1544 왜 4번줄만 끊어지는가? 8 돌빈대 2012.06.15 148889
1543 사운드홀의 비밀 15 돌바퀴 2012.06.14 159230
1542 기타의 공명은 제갈공명인가? 5 돌모기 2012.06.14 131556
1541 기타와 초음파진단기 8 돌파리 2012.06.12 116260
1540 공명은 음을 확대하는가? 7 EchoOff 2012.06.04 108082
1539 실험정신(공명) 7 제갈공명 2012.06.04 127558
1538 특별한 기타.....음향반사판기타 39 file 콩쥐 2012.06.02 93235
1537 클래식기타 컬렉션 2008 1 file 리브라 2012.06.12 80862
1536 현장이 짧은 기타에 대하여-2 5 최동수 2012.06.11 124815
1535 현장이 짧은 기타에 대하여-1 7 최동수 2012.06.10 88900
1534 헬름홀츠의 공기공명 1 file 최동수 2012.06.08 89026
1533 발 받침대 한컷 4 file 대건안드레아 2012.05.12 98469
1532 오일바니쉬... 4 다울랜드.. 2012.04.25 126675
1531 기타 모델링 2 file 이동혁 2012.04.10 87975
1530 스트링 게이지와 음정 관계 와일드프론티어 2012.04.09 135494
1529 기타의 성능 (jeffrey elliot) 1 2012.04.09 82477
1528 책 안내 - "기타 명기와 명장" 비우자 2012.02.14 93879
1527 간단한 댐핏 만들기 13 file 리브라 2012.01.04 87092
1526 자연스런 습도유지. 6 file 2012.01.21 89079
1525 이병우씨 듀얼기타!!ㅋㅋ 2 file 은찬아빠 2012.02.07 89996
1524 Scott Tennant가 연주하는 Daniel Friederich 기타 scdj 2011.12.06 87732
1523 탄소 섬유로 만든 기타 3 cf 2011.12.02 90332
1522 FTA와 guitar 4 == 2011.11.29 90688
1521 Andres Marin 모델 기타 26 최동수 2011.11.13 92136
1520 넥, 지판가공.. 제작자님들 조언 구합니다... 7 김성일 2011.11.04 88421
1519 드디어 기타를 바꾸었읍니다 (베르나베 기타...) 9 김브림 2011.10.31 90462
1518 댓글 퍼왔어요 2 file 언니 2011.09.18 121304
1517 Professional guitarists: their guitars - 2 6 리브라 2011.10.25 102401
1516 Professional guitarists: their guitars - 1 리브라 2011.10.25 103361
1515 바리오스 망고레의 기타 7 file 2011.10.24 90590
1514 Agustin Barrios' original guitar (1914) 7 고정석 2011.10.25 93701
1513 기타 제작.. 3 가람 2011.10.24 89528
1512 GFA 2011 Luthier's Showcase 2 jfs 2011.07.17 93316
1511 시거 박스 기타(Cigar Box Guitars) 7 고정석 2011.07.13 94100
1510 헐거워진 프렛 14 file 리브라 2011.06.18 87030
1509 그것을알고싶다! 하카란다(최종판) 22 file 조국건 2011.05.23 98434
» 클래식기타 에 사용할 온습도계 추천좀 부탁드립니다~ 4 케이스삽니다 2011.05.19 88150
1507 하카란다 꽃 6 file 조국건 2011.05.15 91673
1506 [re] 하카란다 꽃의 근접사진 디테일 5 file 조국건 2011.05.18 84550
1505 [re] 하카란다 꽃 file 파라디소 2011.05.17 80627
1504 2홀 슈퍼칩 3 file 리브라 2011.05.12 89267
1503 tornavoz 이용으로 음색의 변화동영상 17 쥐언니 2011.04.28 84740
1502 황칠 도료 제품 등장 2 보리 2011.04.03 90584
1501 Anders Miolin이 연주하는 The 13-string Chiavi-Miolin Guitar 5 고정석 2011.02.18 99870
1500 Fan Frets Guitar 8 file 고정석 2011.02.17 88009
1499 도미니크 필드 인터뷰 7 idf 2011.02.06 94527
1498 기타 제작용 목재와 대체목에 대해 잘 설명해 놓은 글이 있어서 링크해봅니다. 1 hesed 2011.01.31 94170
1497 포크기타 반음계 2 바람들이 2011.01.22 83908
1496 명기파는곳 1 쥐며느리 2010.12.14 91030
1495 스몰맨기타 모델 1 file 스몰 2010.12.14 90321
1494 Wood & Pearl Guitar Rosette 2 고정석 2010.12.10 87739
1493 메이플로즈 기타 만들기-1 165 최동수 2010.12.02 138290
1492 국내외 기타 레이블 모음 5 오덕구 2010.09.29 90019
1491 높은 프렛(지판에 박힌 쇠)을 구할 수 있나요? 14 highdama 2010.09.22 99467
1490 일본에 유명한 명기 클래식 기타 악기&#49406;좀 알려주세요 7 궁금이 2010.08.02 88694
1489 Arm rest 구입처 문의 또는 대용품 문의 17 Realforce 2010.04.06 87586
1488 [re] Arm rest 구입처 문의 또는 대용품 문의 2 file Realforce 2010.04.23 82876
1487 12홀 브릿지는 장력이 센가요? 17 브릿지 2010.05.18 101863
1486 고수님들....새들 가공에 대해서 질문요... 14 file 몰디브 2010.05.17 104921
1485 목공기계(테이블 쏘우, 기계톱)의 위험성. 11 콩쥐 2010.03.28 108058
1484 Fret Dressing and Set-Up for Classical guitar 6 고정석 2010.03.27 85677
1483 기타 목재 문의...? 3 왔다구나 2010.03.25 87707
1482 [re] 현장 조정가능한 기타를 만들수 없나요 6 file 파크닝팬 2010.03.27 88271
1481 [re] 현장 조정가능한 기타를 만들수 없나요 37 file 쏠레아 2010.03.24 86878
1480 쏠레아님께 질문! 1 file 도치 2010.03.19 85065
1479 하현주(saddle) 미세조정 6 file 쏠레아 2010.03.15 174172
1478 싸즈(saz) 의sound hole(울림구멍) 1 file chokukkon 2010.03.11 105118
1477 Sound hole = 소리 구멍??? 11 쏠레아 2010.03.10 123863
1476 기타의 액션 3 쏠레아 2010.03.08 168046
1475 왜? 49 file 쏠레아 2010.03.07 144184
1474 존길버트와 알마기타 11 재미난기타 2010.03.01 92444
1473 기타의 음량 6 쏠레아 2010.02.28 151484
1472 야마하 Grand Concert 41 모델 아시는 분 계세요? 5 ㅁㅁ 2010.02.25 117339
1471 기타제작가 콩쥐님 보세요. 52 file 쏠레아 2010.02.25 145610
1470 [re] 기타제작가 콩쥐님 보세요. 2 file 저기 2010.02.28 142785
1469 나일론현/스틸현 12 쏠레아 2010.02.22 147853
1468 하이텐션 줄/로우텐션 줄 9 쏠레아 2010.02.20 147776
1467 수리, 중고, 세팅... 2 file 콩쥐 2010.02.19 87461
1466 헤드각과 현의 장력...실험 18 삭제... 2010.02.20 121150
1465 [re] 헤드각과 현의 장력...실험 10 file 쏠레아 2010.02.22 156126
1464 경험으로 깨달은 장력의세기 26 블루고추 2010.02.19 124932
1463 기타리스트들이 애용한 기타들 12 file 고정석 2010.02.02 87116
1462 기타재료 콩쥐 2010.01.31 86812
Board Pagination ‹ Prev 1 2 3 4 5 6 7 8 9 10 11 12 13 14 15 16 17 18 Next ›
/ 18

나눔글꼴 설치 안내


이 PC에는 나눔글꼴이 설치되어 있지 않습니다.

이 사이트를 나눔글꼴로 보기 위해서는
나눔글꼴을 설치해야 합니다.

설치 취소

Designed by sketchbooks.co.kr / sketchbook5 board skin

Sketchbook5, 스케치북5

Sketchbook5, 스케치북5

Sketchbook5, 스케치북5

Sketchbook5, 스케치북5

Powered by Xpress Engine / Designed by hikaru100

abcXYZ, 세종대왕,1234

abcXYZ, 세종대왕,1234